owner,sensor,date,latitude,longitude,vertical_datum,wind_speed,wind_to_direction,wind_speed_of_gust,qcFlag 
DISL,ioos:station:DISL:DISL:1,2015-06-01T00:00:00Z,30.2513,-88.0778,9.68,1.4,195.0,-9999.0,'1111122,1111122,1111122' 
DISL,ioos:station:DISL:DISL:1,2015-06-01T00:30:00Z,30.2513,-88.0778,9.68,0.64,223.5,-9999.0,'1111122,1111122,1111122' 
DISL,ioos:station:DISL:DISL:1,2015-06-01T01:00:00Z,30.2513,-88.0778,9.68,0.29,228.6,-9999.0,'1111122,1111122,1111122' 
DISL,ioos:station:DISL:DISL:1,2015-06-01T01:30:00Z,30.2513,-88.0778,9.68,0.15,259.8,-9999.0,'1111122,1111122,1111122' 
DISL,ioos:station:DISL:DISL:1,2015-06-01T02:00:00Z,30.2513,-88.0778,9.68,0.3,246.0,-9999.0,'1111122,1111122,1111122' 
DISL,ioos:station:DISL:DISL:1,2015-06-01T02:30:00Z,30.2513,-88.0778,9.68,0.06,233.0,-9999.0,'1111122,1111122,1111122' 
DISL,ioos:station:DISL:DISL:1,2015-06-01T03:00:00Z,30.2513,-88.0778,9.68,0.05,209.5,-9999.0,'1111122,1111122,1111122' 
DISL,ioos:station:DISL:DISL:1,2015-06-01T03:30:00Z,30.2513,-88.0778,9.68,0.0,0.0,-9999.0,'1114422,1114422,1111122' 
DISL,ioos:station:DISL:DISL:1,2015-06-01T04:00:00Z,30.2513,-88.0778,9.68,0.0,0.0,-9999.0,'1114422,1114422,1111122' 
DISL,ioos:station:DISL:DISL:1,2015-06-01T04:30:00Z,30.2513,-88.0778,9.68,0.0,0.0,-9999.0,'1114422,1114422,1111122' 
DISL,ioos:station:DISL:DISL:1,2015-06-01T05:00:00Z,30.2513,-88.0778,9.68,0.01,182.6,-9999.0,'1111122,1111122,1111122' 
DISL,ioos:station:DISL:DISL:1,2015-06-01T05:30:00Z,30.2513,-88.0778,9.68,0.53,46.51,-9999.0,'1111122,1111122,1111122' 
DISL,ioos:station:DISL:DISL:1,2015-06-01T06:00:00Z,30.2513,-88.0778,9.68,0.12,215.0,-9999.0,'1111122,1111122,1111122' 
DISL,ioos:station:DISL:DISL:1,2015-06-01T06:30:00Z,30.2513,-88.0778,9.68,0.37,180.8,-9999.0,'1111122,1111122,1111122' 
DISL,ioos:station:DISL:DISL:1,2015-06-01T07:00:00Z,30.2513,-88.0778,9.68,0.57,183.2,-9999.0,'1111122,1111122,1111122' 
DISL,ioos:station:DISL:DISL:1,2015-06-01T07:30:00Z,30.2513,-88.0778,9.68,0.02,238.6,-9999.0,'1111122,1111122,1111122' 
DISL,ioos:station:DISL:DISL:1,2015-06-01T08:00:00Z,30.2513,-88.0778,9.68,0.0,231.3,-9999.0,'1114422,1111122,1111122' 
DISL,ioos:station:DISL:DISL:1,2015-06-01T08:30:00Z,30.2513,-88.0778,9.68,0.35,149.6,-9999.0,'1111122,1111122,1111122' 
DISL,ioos:station:DISL:DISL:1,2015-06-01T09:00:00Z,30.2513,-88.0778,9.68,0.24,208.2,-9999.0,'1111122,1111122,1111122' 
DISL,ioos:station:DISL:DISL:1,2015-06-01T09:30:00Z,30.2513,-88.0778,9.68,0.2,128.7,-9999.0,'1111122,1111122,1111122' 
DISL,ioos:station:DISL:DISL:1,2015-06-01T10:00:00Z,30.2513,-88.0778,9.68,2.69,129.0,-9999.0,'1111122,1111122,1111122' 
DISL,ioos:station:DISL:DISL:1,2015-06-01T10:30:00Z,30.2513,-88.0778,9.68,1.38,133.7,-9999.0,'1111122,1111122,1111122' 
DISL,ioos:station:DISL:DISL:1,2015-06-01T11:00:00Z,30.2513,-88.0778,9.68,2.53,3.934,-9999.0,'1111122,1111122,1111122' 
DISL,ioos:station:DISL:DISL:1,2015-06-01T11:30:00Z,30.2513,-88.0778,9.68,0.04,93.9,-9999.0,'1111122,1111122,1111122' 
DISL,ioos:station:DISL:DISL:1,2015-06-01T12:00:00Z,30.2513,-88.0778,9.68,2.7,40.4,-9999.0,'1111122,1111122,1111122' 
DISL,ioos:station:DISL:DISL:1,2015-06-01T12:30:00Z,30.2513,-88.0778,9.68,2.12,91.7,-9999.0,'1111122,1111122,1111122' 
DISL,ioos:station:DISL:DISL:1,2015-06-01T13:00:00Z,30.2513,-88.0778,9.68,0.9,148.2,-9999.0,'1111122,1111122,1111122' 
DISL,ioos:station:DISL:DISL:1,2015-06-01T13:30:00Z,30.2513,-88.0778,9.68,0.02,159.5,-9999.0,'1111122,1111122,1111122' 
DISL,ioos:station:DISL:DISL:1,2015-06-01T14:00:00Z,30.2513,-88.0778,9.68,1.11,136.3,-9999.0,'1111122,1111122,1111122' 
DISL,ioos:station:DISL:DISL:1,2015-06-01T14:30:00Z,30.2513,-88.0778,9.68,0.27,274.7,-9999.0,'1111122,1111122,1111122' 
DISL,ioos:station:DISL:DISL:1,2015-06-01T15:00:00Z,30.2513,-88.0778,9.68,0.86,302.3,-9999.0,'1111122,1111122,1111122' 
DISL,ioos:station:DISL:DISL:1,2015-06-01T15:30:00Z,30.2513,-88.0778,9.68,0.13,8.45,-9999.0,'1111122,1111122,1111122' 
DISL,ioos:station:DISL:DISL:1,2015-06-01T16:00:00Z,30.2513,-88.0778,9.68,0.49,42.51,-9999.0,'1111122,1111122,1111122' 
DISL,ioos:station:DISL:DISL:1,2015-06-01T16:30:00Z,30.2513,-88.0778,9.68,0.62,106.0,-9999.0,'1111122,1111122,1111122' 
DISL,ioos:station:DISL:DISL:1,2015-06-01T17:00:00Z,30.2513,-88.0778,9.68,1.52,215.9,-9999.0,'1111122,1111122,1111122' 
DISL,ioos:station:DISL:DISL:1,2015-06-01T17:30:00Z,30.2513,-88.0778,9.68,1.18,192.0,-9999.0,'1111122,1111122,1111122' 
DISL,ioos:station:DISL:DISL:1,2015-06-01T18:00:00Z,30.2513,-88.0778,9.68,0.93,197.9,-9999.0,'1111122,1111122,1111122' 
DISL,ioos:station:DISL:DISL:1,2015-06-01T18:30:00Z,30.2513,-88.0778,9.68,0.72,229.1,-9999.0,'1111122,1111122,1111122' 
DISL,ioos:station:DISL:DISL:1,2015-06-01T19:00:00Z,30.2513,-88.0778,9.68,0.89,222.4,-9999.0,'1111122,1111122,1111122' 
DISL,ioos:station:DISL:DISL:1,2015-06-01T19:30:00Z,30.2513,-88.0778,9.68,1.57,185.2,-9999.0,'1111122,1111122,1111122' 
DISL,ioos:station:DISL:DISL:1,2015-06-01T20:00:00Z,30.2513,-88.0778,9.68,0.78,202.4,-9999.0,'1111122,1111122,1111122' 
DISL,ioos:station:DISL:DISL:1,2015-06-01T20:30:00Z,30.2513,-88.0778,9.68,3.44,113.8,-9999.0,'1111122,1111122,1111122' 
DISL,ioos:station:DISL:DISL:1,2015-06-01T21:00:00Z,30.2513,-88.0778,9.68,3.51,114.7,-9999.0,'1111122,1111122,1111122' 
DISL,ioos:station:DISL:DISL:1,2015-06-01T21:30:00Z,30.2513,-88.0778,9.68,2.4,119.1,-9999.0,'1111122,1111122,1111122' 
DISL,ioos:station:DISL:DISL:1,2015-06-01T22:00:00Z,30.2513,-88.0778,9.68,2.65,95.7,-9999.0,'1111122,1111122,1111122' 
DISL,ioos:station:DISL:DISL:1,2015-06-01T22:30:00Z,30.2513,-88.0778,9.68,1.84,82.8,-9999.0,'1111122,1111122,1111122' 
DISL,ioos:station:DISL:DISL:1,2015-06-01T23:00:00Z,30.2513,-88.0778,9.68,2.4,106.6,-9999.0,'1111122,1111122,1111122' 
DISL,ioos:station:DISL:DISL:1,2015-06-01T23:30:00Z,30.2513,-88.0778,9.68,3.04,123.5,-9999.0,'1111122,1111122,1111122' 
DISL,ioos:station:DISL:DISL:1,2015-06-02T00:00:00Z,30.2513,-88.0778,9.68,1.42,138.7,-9999.0,'1111122,1111122,1111122' 
DISL,ioos:station:DISL:DISL:1,2015-06-02T00:30:00Z,30.2513,-88.0778,9.68,1.62,127.6,-9999.0,'1111122,1111122,1111122' 
DISL,ioos:station:DISL:DISL:1,2015-06-02T01:00:00Z,30.2513,-88.0778,9.68,2.1,130.0,-9999.0,'1111122,1111122,1111122' 
DISL,ioos:station:DISL:DISL:1,2015-06-02T01:30:00Z,30.2513,-88.0778,9.68,1.38,142.8,-9999.0,'1111122,1111122,1111122' 
DISL,ioos:station:DISL:DISL:1,2015-06-02T02:00:00Z,30.2513,-88.0778,9.68,1.34,148.3,-9999.0,'1111122,1111122,1111122' 
DISL,ioos:station:DISL:DISL:1,2015-06-02T02:30:00Z,30.2513,-88.0778,9.68,0.78,160.1,-9999.0,'1111122,1111122,1111122' 
DISL,ioos:station:DISL:DISL:1,2015-06-02T03:00:00Z,30.2513,-88.0778,9.68,0.77,151.8,-9999.0,'1111122,1111122,1111122' 
DISL,ioos:station:DISL:DISL:1,2015-06-02T03:30:00Z,30.2513,-88.0778,9.68,0.95,153.9,-9999.0,'1111122,1111122,1111122' 
DISL,ioos:station:DISL:DISL:1,2015-06-02T04:00:00Z,30.2513,-88.0778,9.68,0.72,157.1,-9999.0,'1111122,1111122,1111122' 
DISL,ioos:station:DISL:DISL:1,2015-06-02T04:30:00Z,30.2513,-88.0778,9.68,0.37,175.3,-9999.0,'1111122,1111122,1111122' 
DISL,ioos:station:DISL:DISL:1,2015-06-02T05:00:00Z,30.2513,-88.0778,9.68,0.39,173.1,-9999.0,'1111122,1111122,1111122' 
DISL,ioos:station:DISL:DISL:1,2015-06-02T05:30:00Z,30.2513,-88.0778,9.68,0.34,163.1,-9999.0,'1111122,1111122,1111122' 
DISL,ioos:station:DISL:DISL:1,2015-06-02T06:00:00Z,30.2513,-88.0778,9.68,0.35,180.5,-9999.0,'1111122,1111122,1111122' 
DISL,ioos:station:DISL:DISL:1,2015-06-02T06:30:00Z,30.2513,-88.0778,9.68,0.3,198.0,-9999.0,'1111122,1111122,1111122' 
DISL,ioos:station:DISL:DISL:1,2015-06-02T07:00:00Z,30.2513,-88.0778,9.68,0.25,192.7,-9999.0,'1111122,1111122,1111122' 
DISL,ioos:station:DISL:DISL:1,2015-06-02T07:30:00Z,30.2513,-88.0778,9.68,0.27,189.4,-9999.0,'1111122,1111122,1111122' 
DISL,ioos:station:DISL:DISL:1,2015-06-02T08:00:00Z,30.2513,-88.0778,9.68,0.04,222.0,-9999.0,'1111122,1111122,1111122' 
DISL,ioos:station:DISL:DISL:1,2015-06-02T08:30:00Z,30.2513,-88.0778,9.68,0.28,200.1,-9999.0,'1111122,1111122,1111122' 
DISL,ioos:station:DISL:DISL:1,2015-06-02T09:00:00Z,30.2513,-88.0778,9.68,0.49,189.8,-9999.0,'1111122,1111122,1111122' 
DISL,ioos:station:DISL:DISL:1,2015-06-02T09:30:00Z,30.2513,-88.0778,9.68,1.37,224.9,-9999.0,'1111122,1111122,1111122' 
DISL,ioos:station:DISL:DISL:1,2015-06-02T10:00:00Z,30.2513,-88.0778,9.68,3.85,271.3,-9999.0,'1111122,1111122,1111122' 
DISL,ioos:station:DISL:DISL:1,2015-06-02T10:30:00Z,30.2513,-88.0778,9.68,4.66,342.9,-9999.0,'1111122,1111122,1111122' 
DISL,ioos:station:DISL:DISL:1,2015-06-02T11:00:00Z,30.2513,-88.0778,9.68,1.56,334.4,-9999.0,'1111122,1111122,1111122' 
DISL,ioos:station:DISL:DISL:1,2015-06-02T11:30:00Z,30.2513,-88.0778,9.68,2.1,331.8,-9999.0,'1111122,1111122,1111122' 
DISL,ioos:station:DISL:DISL:1,2015-06-02T12:00:00Z,30.2513,-88.0778,9.68,1.12,6.324,-9999.0,'1111122,1111122,1111122' 
DISL,ioos:station:DISL:DISL:1,2015-06-02T12:30:00Z,30.2513,-88.0778,9.68,1.19,357.7,-9999.0,'1111122,1111122,1111122' 
DISL,ioos:station:DISL:DISL:1,2015-06-02T13:00:00Z,30.2513,-88.0778,9.68,1.58,16.25,-9999.0,'1111122,1111122,1111122' 
DISL,ioos:station:DISL:DISL:1,2015-06-02T13:30:00Z,30.2513,-88.0778,9.68,2.73,22.47,-9999.0,'1111122,1111122,1111122' 
DISL,ioos:station:DISL:DISL:1,2015-06-02T14:00:00Z,30.2513,-88.0778,9.68,2.46,24.59,-9999.0,'1111122,1111122,1111122' 
DISL,ioos:station:DISL:DISL:1,2015-06-02T14:30:00Z,30.2513,-88.0778,9.68,1.82,8.7,-9999.0,'1111122,1111122,1111122' 
DISL,ioos:station:DISL:DISL:1,2015-06-02T15:00:00Z,30.2513,-88.0778,9.68,1.87,359.5,-9999.0,'1111122,1111122,1111122' 
DISL,ioos:station:DISL:DISL:1,2015-06-02T15:30:00Z,30.2513,-88.0778,9.68,2.23,0.307,-9999.0,'1111122,1111122,1111122' 
DISL,ioos:station:DISL:DISL:1,2015-06-02T16:00:00Z,30.2513,-88.0778,9.68,2.22,1.355,-9999.0,'1111122,1111122,1111122' 
DISL,ioos:station:DISL:DISL:1,2015-06-02T16:30:00Z,30.2513,-88.0778,9.68,1.72,0.542,-9999.0,'1111122,1111122,1111122' 
DISL,ioos:station:DISL:DISL:1,2015-06-02T17:00:00Z,30.2513,-88.0778,9.68,1.76,22.58,-9999.0,'1111122,1111122,1111122' 
DISL,ioos:station:DISL:DISL:1,2015-06-02T17:30:00Z,30.2513,-88.0778,9.68,0.83,10.41,-9999.0,'1111122,1111122,1111122' 
DISL,ioos:station:DISL:DISL:1,2015-06-02T18:00:00Z,30.2513,-88.0778,9.68,0.7,28.67,-9999.0,'1111122,1111122,1111122' 
DISL,ioos:station:DISL:DISL:1,2015-06-02T18:30:00Z,30.2513,-88.0778,9.68,1.99,57.98,-9999.0,'1111122,1111122,1111122' 
DISL,ioos:station:DISL:DISL:1,2015-06-02T19:00:00Z,30.2513,-88.0778,9.68,1.13,75.35,-9999.0,'1111122,1111122,1111122' 
DISL,ioos:station:DISL:DISL:1,2015-06-02T19:30:00Z,30.2513,-88.0778,9.68,1.13,98.6,-9999.0,'1111122,1111122,1111122' 
DISL,ioos:station:DISL:DISL:1,2015-06-02T20:00:00Z,30.2513,-88.0778,9.68,0.3,85.0,-9999.0,'1111122,1111122,1111122' 
DISL,ioos:station:DISL:DISL:1,2015-06-02T20:30:00Z,30.2513,-88.0778,9.68,1.66,119.3,-9999.0,'1111122,1111122,1111122' 
DISL,ioos:station:DISL:DISL:1,2015-06-02T21:00:00Z,30.2513,-88.0778,9.68,1.53,147.0,-9999.0,'1111122,1111122,1111122' 
DISL,ioos:station:DISL:DISL:1,2015-06-02T21:30:00Z,30.2513,-88.0778,9.68,1.83,139.9,-9999.0,'1111122,1111122,1111122' 
DISL,ioos:station:DISL:DISL:1,2015-06-02T22:00:00Z,30.2513,-88.0778,9.68,1.73,137.9,-9999.0,'1111122,1111122,1111122' 
DISL,ioos:station:DISL:DISL:1,2015-06-02T22:30:00Z,30.2513,-88.0778,9.68,1.15,143.7,-9999.0,'1111122,1111122,1111122' 
DISL,ioos:station:DISL:DISL:1,2015-06-02T23:00:00Z,30.2513,-88.0778,9.68,1.25,158.6,-9999.0,'1111122,1111122,1111122' 
DISL,ioos:station:DISL:DISL:1,2015-06-02T23:30:00Z,30.2513,-88.0778,9.68,0.64,155.5,-9999.0,'1111122,1111122,1111122' 
DISL,ioos:station:DISL:DISL:1,2015-06-03T00:00:00Z,30.2513,-88.0778,9.68,0.28,161.2,-9999.0,'1111122,1111122,1111122' 
DISL,ioos:station:DISL:DISL:1,2015-06-03T00:30:00Z,30.2513,-88.0778,9.68,0.05,176.1,-9999.0,'1111122,1111122,1111122' 
DISL,ioos:station:DISL:DISL:1,2015-06-03T01:00:00Z,30.2513,-88.0778,9.68,0.02,154.2,-9999.0,'1111122,1111122,1111122' 
DISL,ioos:station:DISL:DISL:1,2015-06-03T01:30:00Z,30.2513,-88.0778,9.68,0.04,175.3,-9999.0,'1111122,1111122,1111122' 
DISL,ioos:station:DISL:DISL:1,2015-06-03T02:00:00Z,30.2513,-88.0778,9.68,0.04,213.1,-9999.0,'1111122,1111122,1111122' 
DISL,ioos:station:DISL:DISL:1,2015-06-03T02:30:00Z,30.2513,-88.0778,9.68,0.01,211.3,-9999.0,'1111122,1111122,1111122' 
DISL,ioos:station:DISL:DISL:1,2015-06-03T03:00:00Z,30.2513,-88.0778,9.68,0.0,239.7,-9999.0,'1114422,1111122,1111122' 
DISL,ioos:station:DISL:DISL:1,2015-06-03T03:30:00Z,30.2513,-88.0778,9.68,0.0,262.9,-9999.0,'1114422,1111122,1111122' 
DISL,ioos:station:DISL:DISL:1,2015-06-03T04:00:00Z,30.2513,-88.0778,9.68,0.0,0.0,-9999.0,'1114422,1114422,1111122' 
DISL,ioos:station:DISL:DISL:1,2015-06-03T04:30:00Z,30.2513,-88.0778,9.68,0.0,0.0,-9999.0,'1114422,1114422,1111122' 
DISL,ioos:station:DISL:DISL:1,2015-06-03T05:00:00Z,30.2513,-88.0778,9.68,0.0,0.0,-9999.0,'1114422,1114422,1111122' 
DISL,ioos:station:DISL:DISL:1,2015-06-03T05:30:00Z,30.2513,-88.0778,9.68,0.0,0.0,-9999.0,'1114422,1114422,1111122' 
DISL,ioos:station:DISL:DISL:1,2015-06-03T06:00:00Z,30.2513,-88.0778,9.68,0.0,356.1,-9999.0,'1114422,1111122,1111122' 
DISL,ioos:station:DISL:DISL:1,2015-06-03T06:30:00Z,30.2513,-88.0778,9.68,0.18,6.049,-9999.0,'1111122,1111122,1111122' 
DISL,ioos:station:DISL:DISL:1,2015-06-03T07:00:00Z,30.2513,-88.0778,9.68,0.01,347.1,-9999.0,'1111122,1111122,1111122' 
DISL,ioos:station:DISL:DISL:1,2015-06-03T07:30:00Z,30.2513,-88.0778,9.68,2.58,3.755,-9999.0,'1111122,1111122,1111122' 
DISL,ioos:station:DISL:DISL:1,2015-06-03T08:00:00Z,30.2513,-88.0778,9.68,1.99,14.4,-9999.0,'1111122,1111122,1111122' 
DISL,ioos:station:DISL:DISL:1,2015-06-03T08:30:00Z,30.2513,-88.0778,9.68,2.15,30.07,-9999.0,'1111122,1111122,1111122' 
DISL,ioos:station:DISL:DISL:1,2015-06-03T09:00:00Z,30.2513,-88.0778,9.68,1.91,21.17,-9999.0,'1111122,1111122,1111122' 
DISL,ioos:station:DISL:DISL:1,2015-06-03T09:30:00Z,30.2513,-88.0778,9.68,2.87,25.48,-9999.0,'1111122,1111122,1111122' 
DISL,ioos:station:DISL:DISL:1,2015-06-03T10:00:00Z,30.2513,-88.0778,9.68,2.94,27.68,-9999.0,'1111122,1111122,1111122' 
DISL,ioos:station:DISL:DISL:1,2015-06-03T10:30:00Z,30.2513,-88.0778,9.68,3.32,35.92,-9999.0,'1111122,1111122,1111122' 
DISL,ioos:station:DISL:DISL:1,2015-06-03T11:00:00Z,30.2513,-88.0778,9.68,3.04,42.73,-9999.0,'1111122,1111122,1111122' 
DISL,ioos:station:DISL:DISL:1,2015-06-03T11:30:00Z,30.2513,-88.0778,9.68,2.4,47.94,-9999.0,'1111122,1111122,1111122' 
DISL,ioos:station:DISL:DISL:1,2015-06-03T12:00:00Z,30.2513,-88.0778,9.68,2.45,63.73,-9999.0,'1111122,1111122,1111122' 
DISL,ioos:station:DISL:DISL:1,2015-06-03T12:30:00Z,30.2513,-88.0778,9.68,2.36,82.5,-9999.0,'1111122,1111122,1111122' 
DISL,ioos:station:DISL:DISL:1,2015-06-03T13:00:00Z,30.2513,-88.0778,9.68,1.11,79.92,-9999.0,'1111122,1111122,1111122' 
DISL,ioos:station:DISL:DISL:1,2015-06-03T13:30:00Z,30.2513,-88.0778,9.68,0.24,56.41,-9999.0,'1111122,1111122,1111122' 
DISL,ioos:station:DISL:DISL:1,2015-06-03T14:00:00Z,30.2513,-88.0778,9.68,1.9,13.85,-9999.0,'1111122,1111122,1111122' 
DISL,ioos:station:DISL:DISL:1,2015-06-03T14:30:00Z,30.2513,-88.0778,9.68,1.16,25.68,-9999.0,'1111122,1111122,1111122' 
DISL,ioos:station:DISL:DISL:1,2015-06-03T15:00:00Z,30.2513,-88.0778,9.68,1.33,33.68,-9999.0,'1111122,1111122,1111122' 
DISL,ioos:station:DISL:DISL:1,2015-06-03T15:30:00Z,30.2513,-88.0778,9.68,0.79,46.7,-9999.0,'1111122,1111122,1111122' 
DISL,ioos:station:DISL:DISL:1,2015-06-03T16:00:00Z,30.2513,-88.0778,9.68,0.44,46.21,-9999.0,'1111122,1111122,1111122' 
DISL,ioos:station:DISL:DISL:1,2015-06-03T16:30:00Z,30.2513,-88.0778,9.68,0.58,33.32,-9999.0,'1111122,1111122,1111122' 
DISL,ioos:station:DISL:DISL:1,2015-06-03T17:00:00Z,30.2513,-88.0778,9.68,0.27,32.67,-9999.0,'1111122,1111122,1111122' 
DISL,ioos:station:DISL:DISL:1,2015-06-03T17:30:00Z,30.2513,-88.0778,9.68,0.18,25.58,-9999.0,'1111122,1111122,1111122' 
DISL,ioos:station:DISL:DISL:1,2015-06-03T18:00:00Z,30.2513,-88.0778,9.68,0.03,33.29,-9999.0,'1111122,1111122,1111122' 
DISL,ioos:station:DISL:DISL:1,2015-06-03T18:30:00Z,30.2513,-88.0778,9.68,0.29,102.4,-9999.0,'1111122,1111122,1111122' 
DISL,ioos:station:DISL:DISL:1,2015-06-03T19:00:00Z,30.2513,-88.0778,9.68,0.35,197.3,-9999.0,'1111122,1111122,1111122' 
DISL,ioos:station:DISL:DISL:1,2015-06-03T19:30:00Z,30.2513,-88.0778,9.68,0.4,168.2,-9999.0,'1111122,1111122,1111122' 
DISL,ioos:station:DISL:DISL:1,2015-06-03T20:00:00Z,30.2513,-88.0778,9.68,0.63,169.6,-9999.0,'1111122,1111122,1111122' 
DISL,ioos:station:DISL:DISL:1,2015-06-03T20:30:00Z,30.2513,-88.0778,9.68,0.66,185.9,-9999.0,'1111122,1111122,1111122' 
DISL,ioos:station:DISL:DISL:1,2015-06-03T21:00:00Z,30.2513,-88.0778,9.68,0.78,181.5,-9999.0,'1111122,1111122,1111122' 
DISL,ioos:station:DISL:DISL:1,2015-06-03T21:30:00Z,30.2513,-88.0778,9.68,0.38,193.5,-9999.0,'1111122,1111122,1111122' 
DISL,ioos:station:DISL:DISL:1,2015-06-03T22:00:00Z,30.2513,-88.0778,9.68,0.65,166.2,-9999.0,'1111122,1111122,1111122' 
DISL,ioos:station:DISL:DISL:1,2015-06-03T22:30:00Z,30.2513,-88.0778,9.68,0.31,193.6,-9999.0,'1111122,1111122,1111122' 
DISL,ioos:station:DISL:DISL:1,2015-06-03T23:00:00Z,30.2513,-88.0778,9.68,0.52,191.6,-9999.0,'1111122,1111122,1111122' 
DISL,ioos:station:DISL:DISL:1,2015-06-03T23:30:00Z,30.2513,-88.0778,9.68,0.29,225.7,-9999.0,'1111122,1111122,1111122' 
DISL,ioos:station:DISL:DISL:1,2015-06-04T00:00:00Z,30.2513,-88.0778,9.68,0.11,230.4,-9999.0,'1111122,1111122,1111122' 
DISL,ioos:station:DISL:DISL:1,2015-06-04T00:30:00Z,30.2513,-88.0778,9.68,0.08,227.2,-9999.0,'1111122,1111122,1111122' 
DISL,ioos:station:DISL:DISL:1,2015-06-04T01:00:00Z,30.2513,-88.0778,9.68,0.03,260.0,-9999.0,'1111122,1111122,1111122' 
DISL,ioos:station:DISL:DISL:1,2015-06-04T01:30:00Z,30.2513,-88.0778,9.68,0.08,227.5,-9999.0,'1111122,1111122,1111122' 
DISL,ioos:station:DISL:DISL:1,2015-06-04T02:00:00Z,30.2513,-88.0778,9.68,0.01,251.7,-9999.0,'1111122,1111122,1111122' 
DISL,ioos:station:DISL:DISL:1,2015-06-04T02:30:00Z,30.2513,-88.0778,9.68,0.02,264.4,-9999.0,'1111122,1111122,1111122' 
DISL,ioos:station:DISL:DISL:1,2015-06-04T03:00:00Z,30.2513,-88.0778,9.68,0.01,251.8,-9999.0,'1111122,1111122,1111122' 
DISL,ioos:station:DISL:DISL:1,2015-06-04T03:30:00Z,30.2513,-88.0778,9.68,0.66,343.8,-9999.0,'1111122,1111122,1111122' 
DISL,ioos:station:DISL:DISL:1,2015-06-04T04:00:00Z,30.2513,-88.0778,9.68,2.21,339.9,-9999.0,'1111122,1111122,1111122' 
DISL,ioos:station:DISL:DISL:1,2015-06-04T04:30:00Z,30.2513,-88.0778,9.68,2.8,341.4,-9999.0,'1111122,1111122,1111122' 
DISL,ioos:station:DISL:DISL:1,2015-06-04T05:00:00Z,30.2513,-88.0778,9.68,2.27,355.4,-9999.0,'1111122,1111122,1111122' 
DISL,ioos:station:DISL:DISL:1,2015-06-04T05:30:00Z,30.2513,-88.0778,9.68,1.48,12.7,-9999.0,'1111122,1111122,1111122' 
DISL,ioos:station:DISL:DISL:1,2015-06-04T06:00:00Z,30.2513,-88.0778,9.68,0.06,19.28,-9999.0,'1111122,1111122,1111122' 
DISL,ioos:station:DISL:DISL:1,2015-06-04T06:30:00Z,30.2513,-88.0778,9.68,0.01,26.09,-9999.0,'1111122,1111122,1111122' 
DISL,ioos:station:DISL:DISL:1,2015-06-04T07:00:00Z,30.2513,-88.0778,9.68,0.02,40.61,-9999.0,'1111122,1111122,1111122' 
DISL,ioos:station:DISL:DISL:1,2015-06-04T07:30:00Z,30.2513,-88.0778,9.68,0.0,0.0,-9999.0,'1114422,1114422,1111122' 
DISL,ioos:station:DISL:DISL:1,2015-06-04T08:00:00Z,30.2513,-88.0778,9.68,0.0,0.0,-9999.0,'1114422,1114422,1111122' 
DISL,ioos:station:DISL:DISL:1,2015-06-04T08:30:00Z,30.2513,-88.0778,9.68,2.03,33.56,-9999.0,'1111122,1111122,1111122' 
DISL,ioos:station:DISL:DISL:1,2015-06-04T09:00:00Z,30.2513,-88.0778,9.68,1.91,41.21,-9999.0,'1111122,1111122,1111122' 
DISL,ioos:station:DISL:DISL:1,2015-06-04T09:30:00Z,30.2513,-88.0778,9.68,2.86,62.0,-9999.0,'1111122,1111122,1111122' 
DISL,ioos:station:DISL:DISL:1,2015-06-04T10:00:00Z,30.2513,-88.0778,9.68,3.16,65.32,-9999.0,'1111122,1111122,1111122' 
DISL,ioos:station:DISL:DISL:1,2015-06-04T10:30:00Z,30.2513,-88.0778,9.68,1.98,65.45,-9999.0,'1111122,1111122,1111122' 
DISL,ioos:station:DISL:DISL:1,2015-06-04T11:00:00Z,30.2513,-88.0778,9.68,1.89,71.15,-9999.0,'1111122,1111122,1111122' 
DISL,ioos:station:DISL:DISL:1,2015-06-04T11:30:00Z,30.2513,-88.0778,9.68,1.33,77.15,-9999.0,'1111122,1111122,1111122' 
DISL,ioos:station:DISL:DISL:1,2015-06-04T12:00:00Z,30.2513,-88.0778,9.68,0.95,84.0,-9999.0,'1111122,1111122,1111122' 
DISL,ioos:station:DISL:DISL:1,2015-06-04T12:30:00Z,30.2513,-88.0778,9.68,2.48,26.44,-9999.0,'1111122,1111122,1111122' 
DISL,ioos:station:DISL:DISL:1,2015-06-04T13:00:00Z,30.2513,-88.0778,9.68,0.55,44.89,-9999.0,'1111122,1111122,1111122' 
DISL,ioos:station:DISL:DISL:1,2015-06-04T13:30:00Z,30.2513,-88.0778,9.68,0.52,44.09,-9999.0,'1111122,1111122,1111122' 
DISL,ioos:station:DISL:DISL:1,2015-06-04T14:00:00Z,30.2513,-88.0778,9.68,0.74,39.58,-9999.0,'1111122,1111122,1111122' 
DISL,ioos:station:DISL:DISL:1,2015-06-04T14:30:00Z,30.2513,-88.0778,9.68,0.17,41.53,-9999.0,'1111122,1111122,1111122' 
DISL,ioos:station:DISL:DISL:1,2015-06-04T15:00:00Z,30.2513,-88.0778,9.68,0.34,23.51,-9999.0,'1111122,1111122,1111122' 
DISL,ioos:station:DISL:DISL:1,2015-06-04T15:30:00Z,30.2513,-88.0778,9.68,0.41,25.57,-9999.0,'1111122,1111122,1111122' 
DISL,ioos:station:DISL:DISL:1,2015-06-04T16:00:00Z,30.2513,-88.0778,9.68,0.7,357.5,-9999.0,'1111122,1111122,1111122' 
DISL,ioos:station:DISL:DISL:1,2015-06-04T16:30:00Z,30.2513,-88.0778,9.68,0.83,13.64,-9999.0,'1111122,1111122,1111122' 
DISL,ioos:station:DISL:DISL:1,2015-06-04T17:00:00Z,30.2513,-88.0778,9.68,0.14,38.8,-9999.0,'1111122,1111122,1111122' 
DISL,ioos:station:DISL:DISL:1,2015-06-04T17:30:00Z,30.2513,-88.0778,9.68,0.1,3.085,-9999.0,'1111122,1111122,1111122' 
DISL,ioos:station:DISL:DISL:1,2015-06-04T18:00:00Z,30.2513,-88.0778,9.68,0.09,17.62,-9999.0,'1111122,1111122,1111122' 
DISL,ioos:station:DISL:DISL:1,2015-06-04T18:30:00Z,30.2513,-88.0778,9.68,0.02,25.95,-9999.0,'1111122,1111122,1111122' 
DISL,ioos:station:DISL:DISL:1,2015-06-04T19:00:00Z,30.2513,-88.0778,9.68,0.0,76.72,-9999.0,'1114422,1111122,1111122' 
DISL,ioos:station:DISL:DISL:1,2015-06-04T19:30:00Z,30.2513,-88.0778,9.68,0.27,140.9,-9999.0,'1111122,1111122,1111122' 
DISL,ioos:station:DISL:DISL:1,2015-06-04T20:00:00Z,30.2513,-88.0778,9.68,0.02,306.7,-9999.0,'1111122,1111122,1111122' 
DISL,ioos:station:DISL:DISL:1,2015-06-04T20:30:00Z,30.2513,-88.0778,9.68,0.16,197.9,-9999.0,'1111122,1111122,1111122' 
DISL,ioos:station:DISL:DISL:1,2015-06-04T21:00:00Z,30.2513,-88.0778,9.68,0.58,184.2,-9999.0,'1111122,1111122,1111122' 
DISL,ioos:station:DISL:DISL:1,2015-06-04T21:30:00Z,30.2513,-88.0778,9.68,0.66,200.7,-9999.0,'1111122,1111122,1111122' 
DISL,ioos:station:DISL:DISL:1,2015-06-04T22:00:00Z,30.2513,-88.0778,9.68,0.56,204.9,-9999.0,'1111122,1111122,1111122' 
DISL,ioos:station:DISL:DISL:1,2015-06-04T22:30:00Z,30.2513,-88.0778,9.68,0.28,197.4,-9999.0,'1111122,1111122,1111122' 
DISL,ioos:station:DISL:DISL:1,2015-06-04T23:00:00Z,30.2513,-88.0778,9.68,0.34,202.8,-9999.0,'1111122,1111122,1111122' 
DISL,ioos:station:DISL:DISL:1,2015-06-04T23:30:00Z,30.2513,-88.0778,9.68,0.11,201.1,-9999.0,'1111122,1111122,1111122' 
DISL,ioos:station:DISL:DISL:1,2015-06-05T00:00:00Z,30.2513,-88.0778,9.68,0.15,224.9,-9999.0,'1111122,1111122,1111122' 
DISL,ioos:station:DISL:DISL:1,2015-06-05T00:30:00Z,30.2513,-88.0778,9.68,0.04,257.5,-9999.0,'1111122,1111122,1111122' 
DISL,ioos:station:DISL:DISL:1,2015-06-05T01:00:00Z,30.2513,-88.0778,9.68,0.05,248.3,-9999.0,'1111122,1111122,1111122' 
DISL,ioos:station:DISL:DISL:1,2015-06-05T01:30:00Z,30.2513,-88.0778,9.68,0.08,267.1,-9999.0,'1111122,1111122,1111122' 
DISL,ioos:station:DISL:DISL:1,2015-06-05T02:00:00Z,30.2513,-88.0778,9.68,0.1,294.0,-9999.0,'1111122,1111122,1111122' 
DISL,ioos:station:DISL:DISL:1,2015-06-05T02:30:00Z,30.2513,-88.0778,9.68,2.87,6.647,-9999.0,'1111122,1111122,1111122' 
DISL,ioos:station:DISL:DISL:1,2015-06-05T03:00:00Z,30.2513,-88.0778,9.68,3.24,2.317,-9999.0,'1111122,1111122,1111122' 
DISL,ioos:station:DISL:DISL:1,2015-06-05T03:30:00Z,30.2513,-88.0778,9.68,2.4,11.43,-9999.0,'1111122,1111122,1111122' 
DISL,ioos:station:DISL:DISL:1,2015-06-05T04:00:00Z,30.2513,-88.0778,9.68,1.86,15.96,-9999.0,'1111122,1111122,1111122' 